Location: Ago
(8.4667°N, 4.4833°E)
Time: 23:43:02
(UTC+00:00)

Cosmos 724 - Pass Details

Date: 18 September 2020
Orbit: 854 x 941 km, 65.6° (Epoch: 20 October)

Event Time Altitude Azimuth Distance (km) Brightness Sun altitude
Rises 18:14:43 0° 342° (NNW) 3,572 7.7 -9.4°
Reaches altitude 10° 18:17:15 10° 344° (NNW) 2,636 7.0 -10.0°
Maximum altitude 18:23:24 73° 69° (ENE) 980 4.4 -11.5°
Drops below altitude 10° 18:29:34 10° 153° (SSE) 2,646 6.5 -13.0°
Sets 18:32:06 0° 155° (SSE) 3,586 7.2 -13.7°
